Volver al catálogo

ZY 3 2

ActivoCienciaSSO
NORAD 41556·PAYLOAD·🇨🇳 China

Lanzado May 30, 2016 desde Taiyuan Satellite Launch Center

Loading…

Próximos Pases (próximas 24 horas)

TLE

ActualizadoSource: Space-Track

Época: Sep 14, 2026, 12:16 UTC

1 41556U 16033A   26257.51159979  .00003702  00000-0  16847-3 0  9993
2 41556  97.3766 331.5335 0012670 353.9620   6.1461 15.21263062571568

Sigue ZY 3 2 en tiempo real con AllMySat

Download on the App Store